CW6344 Weather Reports


Display with metric or nautical units.
time (UTC)temp
F
wind
direction
speed
MPH
gust
MPH
rain 1hr
in
rain 24hr
in
rain mn
in
humidity
%
barometer
mb
20260831102512 74 223 0.0 0.0 0.00 0.00 0.00 92 1018.2
20260831101442 74 223 0.0 0.0 0.00 0.00 0.00 92 1018.2
20260831100442 74 223 0.0 0.0 0.00 0.00 0.00 92 1018.0
20260831095442 74 223 0.0 0.0 0.00 0.00 0.00 92 1018.0
20260831094442 74 223 0.0 0.0 0.00 0.00 0.00 92 1018.0
20260831093442 74 223 0.0 0.0 0.00 0.00 0.00 92 1018.0
20260831092512 75 223 0.0 0.0 0.00 0.00 0.00 92 1018.0
20260831091442 75 223 0.0 0.0 0.00 0.00 0.00 91 1017.9
20260831085442 75 223 0.0 0.0 0.00 0.00 0.00 91 1018.0
20260831084512 75 223 0.0 0.0 0.00 0.00 0.00 91 1018.0
20260831082512 75 223 0.0 0.0 0.00 0.00 0.00 91 1017.9
20260831081442 76 223 0.0 0.0 0.00 0.00 0.00 91 1018.0
20260831080442 76 223 0.0 0.0 0.00 0.00 0.00 90 1018.0
20260831075442 76 223 0.0 0.0 0.00 0.00 0.00 90 1017.9
20260831074442 76 223 0.0 0.0 0.00 0.00 0.00 90 1018.0
20260831073442 76 223 0.0 0.0 0.00 0.00 0.00 90 1017.9
20260831072442 76 223 0.0 0.0 0.00 0.00 0.00 90 1018.1
20260831071442 76 223 0.0 0.0 0.00 0.00 0.00 89 1018.1
20260831070612 76 223 0.0 0.0 0.00 0.00 0.00 89 1018.1
20260831065442 76 223 0.0 0.0 0.00 0.00 0.00 89 1018.0
20260831064442 77 223 0.0 0.0 0.00 0.00 0.00 89 1018.1
20260831062442 77 223 0.0 2.0 0.00 0.00 0.00 89 1018.0
20260831060442 77 217 0.0 0.0 0.00 0.00 0.00 89 1017.9
20260831055442 77 213 0.0 0.0 0.00 0.00 0.00 89 1018.1
20260831054442 77 201 2.0 3.0 0.00 0.00 0.00 89 1018.1
20260831053442 77 230 0.0 1.0 0.00 0.00 0.00 89 1018.2
20260831052512 77 223 0.0 0.0 0.00 0.00 0.00 89 1018.2
20260831051442 77 201 0.0 0.0 0.00 0.00 0.00 89 1018.3
20260831050442 77 257 0.0 0.0 0.00 0.00 0.00 88 1018.3
20260831044442 77 238 0.0 0.0 0.00 0.00 0.00 88 1018.2
20260831043442 77 238 0.0 2.0 0.00 0.00 0.00 88 1018.2
20260831042442 77 238 0.0 0.0 0.00 0.00 0.00 87 1018.3
20260831041442 77 238 0.0 0.0 0.00 0.00 0.00 87 1018.3
20260831040442 77 238 0.0 0.0 0.00 0.00 0.00 86 1018.5
20260831035443 78 238 0.0 0.0 0.00 0.00 0.00 86 1018.6
20260831034442 78 238 0.0 0.0 0.00 0.00 0.00 85 1018.6
20260831033442 78 238 0.0 0.0 0.00 0.00 0.00 85 1018.8
20260831032443 78 238 0.0 0.0 0.00 0.00 0.00 85 1019.0
20260831031443 78 238 2.0 3.0 0.00 0.00 0.00 85 1019.0
20260831030513 78 256 0.0 1.0 0.00 0.00 0.00 85 1018.9
20260831025443 78 256 0.0 1.0 0.00 0.00 0.00 84 1019.0
20260831024443 79 256 0.0 0.0 0.00 0.00 0.00 84 1019.1
20260831022513 79 245 2.0 2.0 0.00 0.00 0.00 85 1019.0
20260831021443 79 238 0.0 1.0 0.00 0.00 0.00 85 1019.1
20260831020443 79 238 0.0 0.0 0.00 0.00 0.00 85 1019.1
20260831015443 80 240 0.0 0.0 0.00 0.00 0.00 84 1019.2
20260831014443 80 294 0.0 0.0 0.00 0.00 0.00 84 1019.0
20260831013442 80 223 0.0 0.0 0.00 0.00 0.00 84 1019.0
20260831012443 80 223 0.0 0.0 0.00 0.00 0.00 84 1019.2
20260831011443 80 223 0.0 0.0 0.00 0.00 0.00 83 1019.2
20260831010443 80 223 0.0 1.0 0.00 0.00 0.00 83 1019.0
20260831005443 80 223 0.0 0.0 0.00 0.00 0.00 83 1018.9
20260831004443 80 223 0.0 0.0 0.00 0.00 0.00 82 1018.9
20260831003443 80 223 0.0 0.0 0.00 0.00 0.00 82 1018.8
20260831002443 80 179 1.0 1.0 0.00 0.00 0.00 82 1018.8
20260831001443 81 207 0.0 0.0 0.00 0.00 0.00 81 1018.8
20260831000443 81 97 0.0 0.0 0.00 0.00 0.00 81 1018.7
20260830235443 80 88 0.0 0.0 0.00 0.00 0.00 82 1018.6
20260830234443 80 88 0.0 0.0 0.00 0.00 0.00 82 1018.6
20260830233443 80 88 0.0 0.0 0.00 0.00 0.00 83 1018.6
20260830232443 80 88 0.0 0.0 0.00 0.00 0.00 83 1018.6
20260830231443 81 88 0.0 0.0 0.00 0.00 0.00 81 1018.7
20260830230443 82 77 0.0 0.0 0.00 0.00 0.00 81 1018.6
20260830225443 82 115 0.0 0.0 0.00 0.00 0.00 79 1018.6
20260830224443 83 40 0.0 1.0 0.00 0.00 0.00 79 1018.5
20260830222443 84 83 0.0 1.0 0.00 0.00 0.00 78 1018.5
20260830221443 84 83 0.0 0.0 0.00 0.00 0.00 78 1018.5
20260830220443 84 84 0.0 0.0 0.00 0.00 0.00 78 1018.4
20260830214443 85 83 0.0 2.0 0.00 0.00 0.00 76 1018.4
20260830213443 86 163 0.0 3.0 0.00 0.00 0.00 75 1018.3
20260830212443 86 286 0.0 0.0 0.00 0.00 0.00 74 1018.3
20260830211443 87 238 4.0 4.0 0.00 0.00 0.00 68 1018.1
20260830210443 87 265 0.0 2.0 0.00 0.00 0.00 71 1018.2
20260830205443 87 215 1.0 1.0 0.00 0.00 0.00 68 1018.2
20260830204513 88 258 0.0 2.0 0.00 0.00 0.00 69 1018.3
20260830203443 87 329 0.0 2.0 0.00 0.00 0.00 68 1018.5
20260830202443 87 304 0.0 0.0 0.00 0.00 0.00 69 1018.6
20260830201443 87 131 0.0 1.0 0.00 0.00 0.00 67 1018.7
20260830200443 87 11 0.0 1.0 0.00 0.00 0.00 67 1018.8
20260830195443 87 233 1.0 1.0 0.00 0.00 0.00 69 1019.0
20260830194443 87 281 0.0 2.0 0.00 0.00 0.00 70 1019.1
20260830193443 87 323 0.0 2.0 0.00 0.00 0.00 70 1019.2
20260830192443 87 283 0.0 2.0 0.00 0.00 0.00 67 1019.3
20260830191443 87 269 0.0 2.0 0.00 0.00 0.00 66 1019.4
20260830190443 87 217 0.0 1.0 0.00 0.00 0.00 69 1019.6
20260830185443 86 238 0.0 3.0 0.00 0.00 0.00 66 1019.8
20260830184443 86 135 1.0 2.0 0.00 0.00 0.00 67 1019.9
20260830183443 86 308 0.0 2.0 0.00 0.00 0.00 68 1020.1
20260830182443 86 283 0.0 3.0 0.00 0.00 0.00 68 1020.2
20260830181443 86 219 2.0 3.0 0.00 0.00 0.00 73 1020.4
20260830180443 86 150 0.0 1.0 0.00 0.00 0.00 70 1020.6
20260830175443 86 267 1.0 2.0 0.00 0.00 0.00 70 1020.7
20260830174513 85 146 0.0 2.0 0.00 0.00 0.00 70 1020.7
20260830173443 86 288 0.0 2.0 0.00 0.00 0.00 72 1020.8
20260830172443 85 93 0.0 2.0 0.00 0.00 0.00 70 1020.9
20260830171443 85 256 1.0 3.0 0.00 0.00 0.00 71 1021.1
20260830170513 85 200 2.0 6.0 0.00 0.00 0.00 71 1021.2
20260830165443 84 234 0.0 3.0 0.00 0.00 0.00 71 1021.2
20260830164513 84 148 3.0 3.0 0.00 0.00 0.00 73 1021.3
20260830163443 83 259 0.0 2.0 0.00 0.00 0.00 74 1021.3
20260830162443 83 241 3.0 3.0 0.00 0.00 0.00 73 1021.4
20260830161443 83 285 0.0 2.0 0.00 0.00 0.00 76 1021.4
20260830160443 83 266 1.0 3.0 0.00 0.00 0.00 74 1021.5
20260830155443 83 344 3.0 4.0 0.00 0.00 0.00 73 1021.5
20260830154443 82 206 1.0 3.0 0.00 0.00 0.00 76 1021.5
20260830152443 81 270 0.0 5.0 0.00 0.00 0.00 77 1021.8
20260830150443 80 18 0.0 2.0 0.00 0.00 0.00 78 1021.8
20260830145443 80 240 2.0 3.0 0.00 0.00 0.00 78 1021.9
20260830144443 79 315 0.0 2.0 0.00 0.00 0.00 79 1021.9
20260830143443 80 250 3.0 3.0 0.00 0.00 0.00 79 1021.9
20260830142443 79 312 0.0 3.0 0.00 0.00 0.00 79 1021.9
20260830140443 78 195 0.0 1.0 0.00 0.00 0.00 82 1022.0
20260830135443 78 245 0.0 1.0 0.00 0.00 0.00 82 1022.1
20260830134443 78 91 0.0 1.0 0.00 0.00 0.00 83 1022.2
20260830133443 78 275 0.0 1.0 0.00 0.00 0.00 84 1022.3
20260830132513 77 153 1.0 4.0 0.00 0.00 0.00 85 1022.4
20260830131443 76 180 0.0 0.0 0.00 0.00 0.00 87 1022.5
20260830130443 76 103 0.0 3.0 0.00 0.00 0.00 89 1022.6
20260830125443 75 258 0.0 0.0 0.00 0.00 0.00 91 1022.7
20260830124443 74 258 0.0 0.0 0.00 0.00 0.00 92 1022.8
20260830122443 73 258 0.0 0.0 0.00 0.00 0.00 93 1022.9
20260830121443 72 258 0.0 0.0 0.00 0.00 0.00 93 1023.0
20260830120443 71 258 0.0 0.0 0.00 0.00 0.00 93 1023.0
20260830115443 70 258 0.0 0.0 0.00 0.00 0.00 93 1023.0
20260830114443 70 258 0.0 0.0 0.00 0.00 0.00 93 1023.0
20260830113443 69 258 0.0 0.0 0.00 0.00 0.00 93 1022.8
20260830112443 69 258 0.0 0.0 0.00 0.00 0.00 93 1022.7
20260830110543 68 258 0.0 0.0 0.00 0.00 0.00 93 1022.6
20260830105443 68 258 0.0 0.0 0.00 0.00 0.00 93 1022.6
20260830104514 68 258 0.0 0.0 0.00 0.00 0.00 93 1022.4